UAL843 YSSY-KLAX

Flight info

Callsign UAL843
Flight time N/A
Altitude 33000
Route NOBAR B580 IFFEY DCT 2940S15727E 2657S16142E 2617S16300E 2359S16710E 2200S17010E 1925S17344E 1533S17814E 1159S17824W 0915S17603W 0521S17246W 0500S17226W 0325S17058W 0023N16659W 0417N16253W 0715N15931W 0857N15726W 1202N15316W 1507N14921W 1705N14651W 2018N14212W 2256N13748W 2510N13346W 2814N12824W 3046N12406W DCT FOOTS DCT FICKY DCT ROSIN DCT SXC LEENA8
Aircraft B789/H-SDE1E2E3FGHIJ2J3J4J5M1RWXY/LB1D1

Departure

Time 2026-04-26 19:56
Airport Sydney Kingsford Smith International Airport (YSSY)

Arrival

Time N/A
Airport Los Angeles International Airport (KLAX)
Time Latitude Longitude Altitude Speed Heading
2026-04-26 19:39 -33.93887 151.16654 26 ft 0 kts 257°
2026-04-26 19:49 -33.93880 151.16679 32 ft 7 kts 248°
2026-04-26 19:49 -33.93870 151.16708 32 ft 7 kts 237°
2026-04-26 19:50 -33.93852 151.16731 32 ft 7 kts 205°
2026-04-26 19:50 -33.93828 151.16737 32 ft 7 kts 168°
2026-04-26 19:50 -33.93823 151.16736 30 ft 7 kts 164°
2026-04-26 19:52 -33.93841 151.16742 28 ft 8 kts 164°
2026-04-26 19:52 -33.93925 151.16770 28 ft 13 kts 165°
2026-04-26 19:52 -33.94009 151.16797 32 ft 13 kts 165°
2026-04-26 19:52 -33.94048 151.16882 32 ft 14 kts 85°
2026-04-26 19:53 -33.94019 151.17029 29 ft 23 kts 74°
2026-04-26 19:53 -33.93951 151.17210 28 ft 16 kts 18°
2026-04-26 19:53 -33.93806 151.17182 23 ft 35 kts 347°
2026-04-26 19:53 -33.93542 151.17112 28 ft 37 kts 348°
2026-04-26 19:54 -33.93308 151.17029 30 ft 26 kts 325°
2026-04-26 19:54 -33.93165 151.16936 29 ft 22 kts 347°
2026-04-26 19:54 -33.93026 151.16911 30 ft 18 kts 11°
2026-04-26 19:54 -33.92971 151.17018 26 ft 15 kts 78°
2026-04-26 19:55 -33.92984 151.17150 30 ft 16 kts 132°
2026-04-26 19:55 -33.93083 151.17196 28 ft 20 kts 167°
2026-04-26 19:55 -33.93415 151.17283 25 ft 80 kts 168°
2026-04-26 19:55 -33.94152 151.17474 27 ft 135 kts 168°
2026-04-26 19:56 -33.95233 151.17756 28 ft 181 kts 168°
2026-04-26 19:56 -33.96572 151.18101 174 ft 202 kts 168°
2026-04-26 19:56 -33.97845 151.18429 1065 ft 181 kts 169°
2026-04-26 19:56 -33.98996 151.19109 1258 ft 196 kts 131°
2026-04-26 19:57 -33.99451 151.20590 1648 ft 185 kts 86°
2026-04-26 19:57 -33.99094 151.22131 1859 ft 205 kts 64°
2026-04-26 19:57 -33.98427 151.23753 2004 ft 236 kts 62°
2026-04-26 19:57 -33.97661 151.25627 2420 ft 255 kts 64°
2026-04-26 19:58 -33.96916 151.27545 3384 ft 255 kts 65°
2026-04-26 19:58 -33.96158 151.29503 4168 ft 260 kts 66°
2026-04-26 19:58 -33.95381 151.31493 4957 ft 265 kts 66°
2026-04-26 19:58 -33.94586 151.33519 5754 ft 269 kts 66°
2026-04-26 19:59 -33.93784 151.35564 6597 ft 272 kts 65°
2026-04-26 19:59 -33.92968 151.37644 7346 ft 277 kts 66°
2026-04-26 19:59 -33.92142 151.39750 8088 ft 281 kts 65°
2026-04-26 19:59 -33.91311 151.41871 8807 ft 285 kts 65°
2026-04-26 20:00 -33.90456 151.44045 9544 ft 290 kts 65°
2026-04-26 20:00 -33.89589 151.46253 10257 ft 294 kts 65°
2026-04-26 20:00 -33.88693 151.48531 10588 ft 313 kts 65°
2026-04-26 20:00 -33.87721 151.51002 10690 ft 340 kts 65°
2026-04-26 20:01 -33.86691 151.53615 11287 ft 346 kts 65°
2026-04-26 20:01 -33.85657 151.56235 12058 ft 349 kts 65°
2026-04-26 20:01 -33.84611 151.58890 12786 ft 353 kts 65°
2026-04-26 20:01 -33.83567 151.61535 13508 ft 357 kts 65°
2026-04-26 20:02 -33.82496 151.64243 14215 ft 361 kts 65°
2026-04-26 20:02 -33.81415 151.66979 14893 ft 363 kts 65°
2026-04-26 20:02 -33.80329 151.69724 15600 ft 365 kts 65°
2026-04-26 20:02 -33.79605 151.71551 16051 ft 366 kts 65°
2026-04-26 20:03 -33.77913 151.75113 16899 ft 370 kts 51°
2026-04-26 20:03 -33.76285 151.77523 17538 ft 373 kts 51°
2026-04-26 20:03 -33.74634 151.79938 18203 ft 375 kts 51°
2026-04-26 20:03 -33.72979 151.82382 18802 ft 378 kts 52°
2026-04-26 20:04 -33.71322 151.84852 19321 ft 382 kts 52°
2026-04-26 20:04 -33.69668 151.87307 19829 ft 385 kts 52°
2026-04-26 20:04 -33.67970 151.89814 20340 ft 389 kts 51°
2026-04-26 20:04 -33.66258 151.92342 20844 ft 392 kts 51°
2026-04-26 20:05 -33.64534 151.94893 21334 ft 395 kts 52°
2026-04-26 20:05 -33.62797 151.97459 21830 ft 398 kts 51°
2026-04-26 20:05 -33.61043 152.00047 22304 ft 401 kts 51°
2026-04-26 20:05 -33.59273 152.02656 22772 ft 405 kts 51°
2026-04-26 20:06 -33.57489 152.05285 23231 ft 408 kts 51°
2026-04-26 20:06 -33.55715 152.07897 23679 ft 411 kts 51°
2026-04-26 20:06 -33.53901 152.10565 24073 ft 414 kts 51°
2026-04-26 20:06 -33.52076 152.13249 24458 ft 417 kts 51°
2026-04-26 20:07 -33.50240 152.15947 24821 ft 419 kts 51°
2026-04-26 20:07 -33.48393 152.18659 25183 ft 422 kts 51°
2026-04-26 20:07 -33.46530 152.21391 25538 ft 424 kts 51°
2026-04-26 20:07 -33.44657 152.24137 25891 ft 427 kts 52°
2026-04-26 20:08 -33.42775 152.26893 26254 ft 429 kts 52°
2026-04-26 20:08 -33.40882 152.29664 26603 ft 431 kts 52°
2026-04-26 20:08 -33.38977 152.32450 26935 ft 434 kts 52°
2026-04-26 20:08 -33.37063 152.35248 27275 ft 436 kts 52°
2026-04-26 20:09 -33.35162 152.38024 27598 ft 438 kts 52°
2026-04-26 20:09 -33.33226 152.40850 27924 ft 441 kts 52°
2026-04-26 20:09 -33.31277 152.43691 28246 ft 443 kts 52°
2026-04-26 20:09 -33.29318 152.46545 28568 ft 445 kts 52°
2026-04-26 20:10 -33.27346 152.49415 28875 ft 448 kts 52°
2026-04-26 20:10 -33.25365 152.52296 29192 ft 450 kts 52°
2026-04-26 20:10 -33.23376 152.55188 29509 ft 452 kts 52°
2026-04-26 20:10 -33.21376 152.58092 29801 ft 454 kts 52°
2026-04-26 20:11 -33.19394 152.60969 30106 ft 456 kts 52°
2026-04-26 20:11 -33.17373 152.63899 30379 ft 458 kts 52°
2026-04-26 20:11 -33.15343 152.66840 30621 ft 460 kts 52°
2026-04-26 20:12 -33.11255 152.72756 31089 ft 464 kts 52°
2026-04-26 20:12 -33.09196 152.75731 31315 ft 466 kts 52°
2026-04-26 20:12 -33.07129 152.78717 31541 ft 468 kts 52°
2026-04-26 20:12 -33.05051 152.81716 31769 ft 470 kts 52°
2026-04-26 20:13 -33.02990 152.84687 31992 ft 472 kts 52°
2026-04-26 20:13 -33.00896 152.87704 32219 ft 474 kts 52°
2026-04-26 20:13 -32.98791 152.90734 32428 ft 476 kts 52°
2026-04-26 20:13 -32.96676 152.93776 32636 ft 477 kts 52°
2026-04-26 20:14 -32.94554 152.96826 32840 ft 479 kts 52°
2026-04-26 20:14 -32.92426 152.99881 33097 ft 480 kts 52°
2026-04-26 20:14 -32.90291 153.02944 33287 ft 482 kts 52°
2026-04-26 20:15 -32.85975 153.09129 33278 ft 485 kts 52°
2026-04-26 20:15 -32.81676 153.15276 33256 ft 482 kts 52°
2026-04-26 20:16 -32.77422 153.21354 33268 ft 481 kts 52°
2026-04-26 20:16 -32.73135 153.27465 33271 ft 482 kts 52°
2026-04-26 20:17 -32.68834 153.33588 33271 ft 484 kts 52°
2026-04-26 20:17 -32.64512 153.39728 33274 ft 484 kts 52°
2026-04-26 20:18 -32.60226 153.45810 33254 ft 483 kts 52°
2026-04-26 20:18 -32.55921 153.51908 33254 ft 481 kts 52°
2026-04-26 20:19 -32.51615 153.57997 33254 ft 483 kts 52°
2026-04-26 20:19 -32.47288 153.64106 33259 ft 485 kts 52°
2026-04-26 20:20 -32.42954 153.70212 33263 ft 484 kts 52°
2026-04-26 20:20 -32.38658 153.76258 33267 ft 482 kts 52°
2026-04-26 20:21 -32.34343 153.82320 33260 ft 482 kts 52°
2026-04-26 20:21 -32.30014 153.88393 33263 ft 484 kts 52°
2026-04-26 20:22 -32.25669 153.94475 33269 ft 484 kts 52°
2026-04-26 20:22 -32.21357 154.00503 33265 ft 483 kts 52°
2026-04-26 20:23 -32.17020 154.06557 33263 ft 483 kts 52°
2026-04-26 20:23 -32.12686 154.12596 33261 ft 482 kts 52°
2026-04-26 20:24 -32.08357 154.18619 33254 ft 481 kts 52°
2026-04-26 20:24 -32.04024 154.24639 33255 ft 482 kts 52°
2026-04-26 20:25 -31.99701 154.30634 33263 ft 484 kts 52°
2026-04-26 20:25 -31.95331 154.36685 33277 ft 486 kts 52°
2026-04-26 20:26 -31.91008 154.42762 33267 ft 483 kts 52°
2026-04-26 20:26 -31.86692 154.48805 33262 ft 482 kts 52°
2026-04-26 20:27 -31.82406 154.54795 33257 ft 482 kts 52°
2026-04-26 20:27 -31.78081 154.60838 33255 ft 484 kts 52°
2026-04-26 20:28 -31.73728 154.66902 33259 ft 486 kts 52°
2026-04-26 20:28 -31.69379 154.72955 33263 ft 483 kts 52°
2026-04-26 20:29 -31.65076 154.78933 33261 ft 482 kts 52°
2026-04-26 20:29 -31.61476 154.83928 33259 ft 482 kts 52°